| time (UTC) | temp F | wind direction | speed knots | gust knots | rain 1hr in | rain 24hr in | rain mn in | humidity % | barometer mb |
| 20260506023157 | 0 | 3.5 | 3.5 | 0.00 | 0.00 | 0.00 | |||
| 20260506022659 | 62 | 7.0 | 7.0 | 0.00 | 0.00 | 0.00 | |||
| 20260506013659 | 0 | 158 | 7.8 | 7.8 | 0.00 | 0.00 | 0.00 | ||
| 20260506013159 | 0 | 180 | 3.5 | 3.5 | 0.00 | 0.00 | 0.00 | ||
| 20260506011157 | 65 | 45 | 4.3 | 4.3 | 0.00 | 0.00 | 0.00 | ||
| 20260506010657 | 0 | 180 | 3.5 | 3.5 | 0.00 | 0.00 | 0.00 | ||
| 20260506010157 | 64 | 158 | 4.3 | 7.8 | 0.00 | 0.00 | 0.00 | ||
| 20260506000158 | 66 | 90 | 4.3 | 6.1 | 0.00 | 0.00 | 0.00 | ||
| 20260505235658 | 0 | 135 | 5.2 | 5.2 | 0.00 | 0.00 | 0.00 | ||
| 20260505235157 | 67 | 158 | 6.1 | 7.8 | 0.00 | 0.00 | 0.00 | ||
| 20260505234657 | 67 | 8.7 | 8.7 | 0.00 | 0.00 | 0.00 | |||
| 20260505234159 | 66 | 113 | 6.1 | 7.8 | 0.00 | 0.00 | 0.00 | ||
| 20260505233659 | 66 | 113 | 7.0 | 8.7 | 0.00 | 0.00 | 0.00 | ||
| 20260505232657 | 67 | 203 | 5.2 | 7.8 | 0.00 | 0.00 | 0.00 | ||
| 20260505232157 | 0 | 7.8 | 9.6 | 0.00 | 0.00 | 0.00 | |||
| 20260505231657 | 67 | 113 | 4.3 | 5.2 | 0.00 | 0.00 | 0.00 | ||
| 20260505231158 | 67 | 23 | 5.2 | 6.1 | 0.00 | 0.00 | 0.00 | ||
| 20260505230659 | 67 | 4.3 | 4.3 | 0.00 | 0.00 | 0.00 | |||
| 20260505230159 | 0 | 6.1 | 6.1 | 0.00 | 0.00 | 0.00 | |||
| 20260505225659 | 67 | 158 | 8.7 | 11.3 | 0.00 | 0.00 | 0.00 | ||
| 20260505225159 | 0 | 45 | 3.5 | 3.5 | 0.00 | 0.00 | 0.00 | ||
| 20260505224659 | 68 | 113 | 4.3 | 7.0 | 0.00 | 0.00 | 0.00 | ||
| 20260505224157 | 66 | 203 | 5.2 | 7.0 | 0.00 | 0.00 | 0.00 | ||
| 20260505223657 | 67 | 113 | 4.3 | 7.0 | 0.00 | 0.00 | 0.00 | ||
| 20260505223157 | 66 | 68 | 6.1 | 7.8 | 0.00 | 0.00 | 0.00 | ||
| 20260505222657 | 67 | 225 | 6.1 | 8.7 | 0.00 | 0.00 | 0.00 | ||
| 20260505222158 | 68 | 158 | 5.2 | 6.1 | 0.00 | 0.00 | 0.00 | ||
| 20260505221658 | 0 | 5.2 | 7.8 | 0.00 | 0.00 | 0.00 | |||
| 20260505221157 | 67 | 113 | 5.2 | 7.0 | 0.00 | 0.00 | 0.00 | ||
| 20260505220658 | 68 | 135 | 4.3 | 7.8 | 0.00 | 0.00 | 0.00 | ||
| 20260505220159 | 67 | 113 | 5.2 | 7.0 | 0.00 | 0.00 | 0.00 | ||
| 20260505215658 | 0 | 5.2 | 8.7 | 0.00 | 0.00 | 0.00 | |||
| 20260505215157 | 68 | 203 | 7.8 | 11.3 | 0.00 | 0.00 | 0.00 | ||
| 20260505214658 | 68 | 180 | 5.2 | 6.1 | 0.00 | 0.00 | 0.00 | ||
| 20260505214159 | 67 | 338 | 6.1 | 8.7 | 0.00 | 0.00 | 0.00 | ||
| 20260505213659 | 68 | 158 | 4.3 | 6.1 | 0.00 | 0.00 | 0.00 | ||
| 20260505213159 | 67 | 203 | 7.0 | 10.4 | 0.00 | 0.00 | 0.00 | ||
| 20260505212657 | 67 | 180 | 6.1 | 7.8 | 0.00 | 0.00 | 0.00 | ||
| 20260505212158 | 66 | 180 | 3.5 | 7.0 | 0.00 | 0.00 | 0.00 | ||
| 20260505211658 | 66 | 158 | 5.2 | 7.8 | 0.00 | 0.00 | 0.00 | ||
| 20260505211157 | 67 | 180 | 6.1 | 10.4 | 0.00 | 0.00 | 0.00 | ||
| 20260505210658 | 67 | 113 | 5.2 | 7.0 | 0.00 | 0.00 | 0.00 | ||
| 20260505210159 | 67 | 113 | 7.8 | 8.7 | 0.00 | 0.00 | 0.00 | ||
| 20260505205701 | 0 | 158 | 3.5 | 3.5 | 0.00 | 0.00 | 0.00 | ||
| 20260505205158 | 66 | 135 | 6.1 | 7.8 | 0.00 | 0.00 | 0.00 | ||
| 20260505204657 | 0 | 45 | 5.2 | 6.1 | 0.00 | 0.00 | 0.00 | ||
| 20260505204157 | 68 | 68 | 5.2 | 6.1 | 0.00 | 0.00 | 0.00 | ||
| 20260505203659 | 66 | 225 | 7.0 | 8.7 | 0.00 | 0.00 | 0.00 | ||
| 20260505203157 | 67 | 90 | 5.2 | 7.0 | 0.00 | 0.00 | 0.00 | ||
| 20260505202657 | 66 | 90 | 7.0 | 7.8 | 0.00 | 0.00 | 0.00 | ||
| 20260505202158 | 66 | 4.3 | 9.6 | 0.00 | 0.00 | 0.00 | |||
| 20260505201659 | 66 | 225 | 6.1 | 7.0 | 0.00 | 0.00 | 0.00 | ||
| 20260505200159 | 66 | 113 | 5.2 | 6.1 | 0.00 | 0.00 | 0.00 | ||
| 20260505195659 | 66 | 45 | 5.2 | 7.8 | 0.00 | 0.00 | 0.00 | ||
| 20260505195159 | 0 | 7.0 | 8.7 | 0.00 | 0.00 | 0.00 | |||
| 20260505194657 | 66 | 203 | 4.3 | 5.2 | 0.00 | 0.00 | 0.00 | ||
| 20260505194157 | 65 | 248 | 5.2 | 6.1 | 0.00 | 0.00 | 0.00 | ||
| 20260505193658 | 65 | 203 | 6.1 | 9.6 | 0.00 | 0.00 | 0.00 | ||
| 20260505193158 | 66 | 158 | 5.2 | 7.0 | 0.00 | 0.00 | 0.00 | ||
| 20260505192657 | 64 | 90 | 5.2 | 8.7 | 0.00 | 0.00 | 0.00 | ||
| 20260505192158 | 65 | 158 | 7.0 | 8.7 | 0.00 | 0.00 | 0.00 | ||
| 20260505191658 | 65 | 203 | 4.3 | 6.1 | 0.00 | 0.00 | 0.00 | ||
| 20260505191157 | 66 | 203 | 6.1 | 8.7 | 0.00 | 0.00 | 0.00 | ||
| 20260505190657 | 64 | 113 | 7.0 | 10.4 | 0.00 | 0.00 | 0.00 | ||
| 20260505190158 | 0 | 158 | 6.1 | 7.8 | 0.00 | 0.00 | 0.00 | ||
| 20260505185659 | 64 | 180 | 5.2 | 7.8 | 0.00 | 0.00 | 0.00 | ||
| 20260505185158 | 64 | 135 | 7.0 | 9.6 | 0.00 | 0.00 | 0.00 | ||
| 20260505184657 | 63 | 135 | 7.0 | 8.7 | 0.00 | 0.00 | 0.00 | ||
| 20260505184158 | 0 | 180 | 5.2 | 8.7 | 0.00 | 0.00 | 0.00 | ||
| 20260505183659 | 63 | 158 | 6.1 | 8.7 | 0.00 | 0.00 | 0.00 | ||
| 20260505183158 | 63 | 135 | 2.6 | 5.2 | 0.00 | 0.00 | 0.00 | ||
| 20260505182658 | 61 | 113 | 4.3 | 7.0 | 0.00 | 0.00 | 0.00 | ||
| 20260505182159 | 0 | 7.0 | 7.8 | 0.00 | 0.00 | 0.00 | |||
| 20260505181659 | 61 | 113 | 6.1 | 7.8 | 0.00 | 0.00 | 0.00 | ||
| 20260505181158 | 61 | 203 | 7.0 | 8.7 | 0.00 | 0.00 | 0.00 | ||
| 20260505180658 | 59 | 203 | 4.3 | 5.2 | 0.00 | 0.00 | 0.00 | ||
| 20260505180159 | 59 | 113 | 3.5 | 3.5 | 0.00 | 0.00 | 0.00 | ||
| 20260505175659 | 59 | 180 | 4.3 | 5.2 | 0.00 | 0.00 | 0.00 | ||
| 20260505175159 | 59 | 113 | 3.5 | 7.8 | 0.00 | 0.00 | 0.00 | ||
| 20260505174659 | 58 | 135 | 5.2 | 7.8 | 0.00 | 0.00 | 0.00 | ||
| 20260505174159 | 57 | 158 | 5.2 | 7.0 | 0.00 | 0.00 | 0.00 | ||
| 20260505173658 | 57 | 180 | 6.1 | 9.6 | 0.00 | 0.00 | 0.00 | ||
| 20260505173158 | 58 | 180 | 5.2 | 7.8 | 0.00 | 0.00 | 0.00 | ||
| 20260505172658 | 57 | 45 | 6.1 | 10.4 | 0.00 | 0.00 | 0.00 | ||
| 20260505172157 | 57 | 158 | 5.2 | 7.0 | 0.00 | 0.00 | 0.00 | ||
| 20260505171658 | 58 | 180 | 4.3 | 5.2 | 0.00 | 0.00 | 0.00 | ||
| 20260505171158 | 58 | 90 | 5.2 | 7.0 | 0.00 | 0.00 | 0.00 | ||
| 20260505170657 | 58 | 180 | 5.2 | 7.8 | 0.00 | 0.00 | 0.00 | ||
| 20260505170158 | 0 | 6.1 | 7.8 | 0.00 | 0.00 | 0.00 | |||
| 20260505165658 | 58 | 203 | 6.1 | 7.8 | 0.00 | 0.00 | 0.00 | ||
| 20260505165158 | 58 | 113 | 6.1 | 9.6 | 0.00 | 0.00 | 0.00 | ||
| 20260505164657 | 57 | 113 | 4.3 | 6.1 | 0.00 | 0.00 | 0.00 | ||
| 20260505164157 | 58 | 180 | 7.0 | 11.3 | 0.00 | 0.00 | 0.00 | ||
| 20260505163658 | 59 | 90 | 6.1 | 7.8 | 0.00 | 0.00 | 0.00 | ||
| 20260505163159 | 60 | 225 | 5.2 | 7.0 | 0.00 | 0.00 | 0.00 | ||
| 20260505162658 | 0 | 4.3 | 7.8 | 0.00 | 0.00 | 0.00 | |||
| 20260505162157 | 59 | 270 | 7.0 | 10.4 | 0.00 | 0.00 | 0.00 | ||
| 20260505161658 | 58 | 225 | 6.1 | 7.8 | 0.00 | 0.00 | 0.00 | ||
| 20260505161158 | 59 | 180 | 4.3 | 8.7 | 0.00 | 0.00 | 0.00 | ||
| 20260505160658 | 58 | 180 | 7.0 | 7.8 | 0.00 | 0.00 | 0.00 | ||
| 20260505160159 | 0 | 5.2 | 7.0 | 0.00 | 0.00 | 0.00 | |||
| 20260505153158 | 0 | 3.5 | 5.2 | 0.00 | 0.00 | 0.00 | |||
| 20260505152657 | 0 | 113 | 5.2 | 7.8 | 0.00 | 0.00 | 0.00 | ||
| 20260505152158 | 59 | 45 | 7.0 | 11.3 | 0.00 | 0.00 | 0.00 | ||
| 20260505151659 | 59 | 135 | 2.6 | 3.5 | 0.00 | 0.00 | 0.00 | ||
| 20260505151159 | 59 | 135 | 3.5 | 4.3 | 0.00 | 0.00 | 0.00 | ||
| 20260505150657 | 59 | 45 | 4.3 | 6.1 | 0.00 | 0.00 | 0.00 | ||
| 20260505150158 | 58 | 45 | 6.1 | 7.8 | 0.00 | 0.00 | 0.00 | ||
| 20260505140157 | 57 | 68 | 5.2 | 7.0 | 0.00 | 0.00 | 0.00 | ||
| 20260505120659 | 55 | 1.7 | 1.7 | 0.00 | 0.00 | 0.00 | |||
| 20260505102158 | 57 | 158 | 0.0 | 2.6 | 0.00 | 0.00 | 0.00 | ||
| 20260505101659 | 57 | 180 | 0.9 | 3.5 | 0.00 | 0.00 | 0.00 | ||
| 20260505101159 | 0 | 0.9 | 3.5 | 0.00 | 0.00 | 0.00 | |||
| 20260505100658 | 58 | 90 | 3.5 | 5.2 | 0.00 | 0.00 | 0.00 | ||
| 20260505100158 | 0 | 5.2 | 7.0 | 0.00 | 0.00 | 0.00 | |||
| 20260505095658 | 58 | 68 | 3.5 | 4.3 | 0.00 | 0.00 | 0.00 | ||
| 20260505095159 | 0 | 6.1 | 7.8 | 0.00 | 0.00 | 0.00 | |||
| 20260505094659 | 58 | 158 | 2.6 | 3.5 | 0.00 | 0.00 | 0.00 | ||
| 20260505094158 | 58 | 158 | 3.5 | 3.5 | 0.00 | 0.00 | 0.00 | ||
| 20260505093657 | 0 | 5.2 | 7.8 | 0.00 | 0.00 | 0.00 | |||
| 20260505093158 | 57 | 45 | 3.5 | 5.2 | 0.00 | 0.00 | 0.00 | ||
| 20260505092659 | 57 | 135 | 2.6 | 3.5 | 0.00 | 0.00 | 0.00 | ||
| 20260505092158 | 57 | 180 | 3.5 | 4.3 | 0.00 | 0.00 | 0.00 | ||
| 20260505091657 | 57 | 203 | 3.5 | 4.3 | 0.00 | 0.00 | 0.00 | ||
| 20260505091158 | 57 | 135 | 2.6 | 3.5 | 0.00 | 0.00 | 0.00 | ||
| 20260505090659 | 57 | 135 | 2.6 | 3.5 | 0.00 | 0.00 | 0.00 | ||
| 20260505090158 | 57 | 158 | 2.6 | 3.5 | 0.00 | 0.00 | 0.00 | ||
| 20260505085658 | 57 | 135 | 0.9 | 3.5 | 0.00 | 0.00 | 0.00 | ||
| 20260505085159 | 0 | 0.0 | 1.7 | 0.00 | 0.00 | 0.00 | |||
| 20260505084659 | 57 | 135 | 1.7 | 3.5 | 0.00 | 0.00 | 0.00 | ||
| 20260505084159 | 57 | 158 | 0.0 | 0.0 | 0.00 | 0.00 | 0.00 | ||
| 20260505083659 | 57 | 135 | 0.0 | 0.0 | 0.00 | 0.00 | 0.00 | ||
| 20260505083158 | 58 | 158 | 0.0 | 0.0 | 0.00 | 0.00 | 0.00 | ||
| 20260505082659 | 58 | 158 | 0.0 | 0.0 | 0.00 | 0.00 | 0.00 | ||
| 20260505082159 | 58 | 158 | 0.0 | 0.0 | 0.00 | 0.00 | 0.00 | ||
| 20260505081659 | 58 | 158 | 0.0 | 0.0 | 0.00 | 0.00 | 0.00 | ||
| 20260505081159 | 59 | 113 | 1.7 | 3.5 | 0.00 | 0.00 | 0.00 | ||
| 20260505080659 | 59 | 135 | 2.6 | 3.5 | 0.00 | 0.00 | 0.00 | ||
| 20260505080158 | 59 | 180 | 2.6 | 3.5 | 0.00 | 0.00 | 0.00 | ||
| 20260505075657 | 59 | 135 | 0.0 | 0.0 | 0.00 | 0.00 | 0.00 | ||
| 20260505075157 | 59 | 68 | 0.0 | 0.0 | 0.00 | 0.00 | 0.00 | ||
| 20260505074658 | 59 | 135 | 1.7 | 3.5 | 0.00 | 0.00 | 0.00 | ||
| 20260505074158 | 59 | 158 | 0.0 | 0.0 | 0.00 | 0.00 | 0.00 | ||
| 20260505073657 | 0 | 0.0 | 0.0 | 0.00 | 0.00 | 0.00 | |||
| 20260505073158 | 60 | 180 | 1.7 | 3.5 | 0.00 | 0.00 | 0.00 | ||
| 20260505072659 | 60 | 135 | 0.0 | 0.0 | 0.00 | 0.00 | 0.00 | ||
| 20260505072158 | 0 | 0.0 | 0.0 | 0.00 | 0.00 | 0.00 | |||
| 20260505071657 | 60 | 203 | 0.0 | 2.6 | 0.00 | 0.00 | 0.00 | ||
| 20260505071157 | 60 | 113 | 0.0 | 0.0 | 0.00 | 0.00 | 0.00 | ||
| 20260505070658 | 60 | 225 | 0.9 | 3.5 | 0.00 | 0.00 | 0.00 | ||
| 20260505070158 | 60 | 203 | 0.0 | 0.0 | 0.00 | 0.00 | 0.00 | ||
| 20260505065657 | 60 | 203 | 0.0 | 0.0 | 0.00 | 0.00 | 0.00 | ||
| 20260505065158 | 61 | 135 | 0.0 | 0.0 | 0.00 | 0.00 | 0.00 | ||
| 20260505064659 | 61 | 180 | 0.0 | 0.0 | 0.00 | 0.00 | 0.00 | ||
| 20260505064159 | 0 | 0.0 | 0.0 | 0.00 | 0.00 | 0.00 | |||
| 20260505063657 | 62 | 135 | 1.7 | 3.5 | 0.00 | 0.00 | 0.00 | ||
| 20260505063157 | 62 | 113 | 0.0 | 1.7 | 0.00 | 0.00 | 0.00 | ||
| 20260505062658 | 62 | 158 | 1.7 | 2.6 | 0.00 | 0.00 | 0.00 | ||
| 20260505062158 | 62 | 158 | 0.9 | 2.6 | 0.00 | 0.00 | 0.00 | ||
| 20260505061659 | 62 | 158 | 0.0 | 0.0 | 0.00 | 0.00 | 0.00 | ||
| 20260505061159 | 62 | 135 | 0.0 | 0.0 | 0.00 | 0.00 | 0.00 | ||
| 20260505060659 | 63 | 158 | 0.0 | 0.0 | 0.00 | 0.00 | 0.00 | ||
| 20260505060157 | 63 | 158 | 0.0 | 0.0 | 0.00 | 0.00 | 0.00 | ||
| 20260505055657 | 63 | 135 | 0.0 | 0.0 | 0.00 | 0.00 | 0.00 | ||
| 20260505055157 | 0 | 0.0 | 0.0 | 0.00 | 0.00 | 0.00 | |||
| 20260505054658 | 64 | 158 | 0.0 | 0.0 | 0.00 | 0.00 | 0.00 | ||
| 20260505054159 | 64 | 180 | 0.0 | 0.0 | 0.00 | 0.00 | 0.00 | ||
| 20260505053658 | 64 | 180 | 0.0 | 0.0 | 0.00 | 0.00 | 0.00 | ||
| 20260505053157 | 0 | 0.0 | 0.0 | 0.00 | 0.00 | 0.00 | |||
| 20260505052657 | 64 | 135 | 0.0 | 0.0 | 0.00 | 0.00 | 0.00 | ||
| 20260505052158 | 0 | 0.0 | 0.0 | 0.00 | 0.00 | 0.00 | |||
| 20260505051658 | 65 | 180 | 0.0 | 0.0 | 0.00 | 0.00 | 0.00 | ||
| 20260505051158 | 65 | 113 | 0.0 | 0.0 | 0.00 | 0.00 | 0.00 | ||
| 20260505050659 | 66 | 135 | 0.0 | 0.0 | 0.00 | 0.00 | 0.00 | ||
| 20260505050159 | 66 | 180 | 0.0 | 0.0 | 0.00 | 0.00 | 0.00 | ||
| 20260505041658 | 69 | 158 | 0.0 | 0.0 | 0.00 | 0.00 | 0.00 | ||
| 20260505041158 | 69 | 158 | 0.0 | 0.0 | 0.00 | 0.00 | 0.00 | ||
| 20260505040659 | 0 | 0.0 | 0.0 | 0.00 | 0.00 | 0.00 | |||
| 20260505040159 | 70 | 158 | 0.9 | 1.7 | 0.00 | 0.00 | 0.00 | ||
| 20260505035657 | 71 | 158 | 0.9 | 2.6 | 0.00 | 0.00 | 0.00 | ||
| 20260505035158 | 71 | 158 | 0.0 | 0.0 | 0.00 | 0.00 | 0.00 | ||
| 20260505034659 | 71 | 158 | 0.0 | 0.0 | 0.00 | 0.00 | 0.00 | ||
| 20260505034159 | 72 | 158 | 0.0 | 0.0 | 0.00 | 0.00 | 0.00 | ||
| 20260505033658 | 72 | 158 | 0.0 | 0.0 | 0.00 | 0.00 | 0.00 | ||
| 20260505033158 | 0 | 0.0 | 0.0 | 0.00 | 0.00 | 0.00 | |||
| 20260505032659 | 73 | 180 | 0.0 | 0.0 | 0.00 | 0.00 | 0.00 | ||
| 20260505032159 | 73 | 180 | 1.7 | 3.5 | 0.00 | 0.00 | 0.00 | ||
| 20260505031658 | 74 | 158 | 1.7 | 3.5 | 0.00 | 0.00 | 0.00 | ||
| 20260505031159 | 74 | 158 | 2.6 | 3.5 | 0.00 | 0.00 | 0.00 | ||
| 20260505030659 | 75 | 135 | 0.0 | 0.0 | 0.00 | 0.00 | 0.00 | ||
| 20260505030158 | 0 | 0.0 | 1.7 | 0.00 | 0.00 | 0.00 | |||
| 20260505025657 | 75 | 113 | 1.7 | 3.5 | 0.00 | 0.00 | 0.00 | ||
| 20260505025158 | 76 | 135 | 1.7 | 2.6 | 0.00 | 0.00 | 0.00 | ||
| 20260505024659 | 76 | 68 | 0.9 | 3.5 | 0.00 | 0.00 | 0.00 | ||
| 20260505024159 | 77 | 158 | 0.0 | 1.7 | 0.00 | 0.00 | 0.00 | ||
| 20260505023658 | 0 | 0.0 | 0.0 | 0.00 | 0.00 | 0.00 |